Davenport, IA

11:10 AM CST on December 13, 2017 (GMT -0600)
Davenport Municipal

Weather History for KDVN - November, 2013

Change the Weather History Date:

Saturday, November 23, 2013

  Actual Average Record
Temperature  
Mean Temperature 16 °F 35 °F  
Max Temperature 24 °F 44 °F 65 °F (1966)
Min Temperature 7 °F 26 °F 2 °F (1950)
Degree Days  
Heating Degree Days 49 30  
Month to date heating degree days 595 561  
Since 1 July heating degree days 1131 1121  
Cooling Degree Days 0 0  
Month to date cooling degree days 0 0  
Year to date cooling degree days 938 786  
Moisture  
Dew Point 10 °F    
Average Humidity 68    
Maximum Humidity 84    
Minimum Humidity 52    
Precipitation  
Precipitation T in 0.07 in 1.14 in (2014)
Month to date precipitation 1.70 1.94  
Year to date precipitation 33.77 33.79  
Snow  
Snow T in - - ()
Month to date snowfall 0.7  
Since 1 July snowfall 3.2  
Since 1 September snowfall 3.2  
Snow Depth 0.00 in    
Sea Level Pressure  
Sea Level Pressure 30.69 in    
Wind  
Wind Speed 13 mph (NNW)    
Max Wind Speed 25 mph    
Max Gust Speed 29 mph    
Visibility 10 miles    
Events      
T = Trace of Precipitation, MM = Missing Value Source: NWS Daily Summary

Daily Weather History Graph

Daily Weather History Graph

Search for Another Location

Airport or City:

Trip Planner

Search our weather history database for the weather conditions in past years. The results will help you decide how hot, cold, wet, or windy it might be!

Date:

Astronomy

Nov. 23, 2013 Rise Set
Actual Time 7:01 AM CST 4:36 PM CST
Civil Twilight 6:30 AM CST 5:06 PM CST
Nautical Twilight 5:56 AM CST 5:40 PM CST
Astronomical Twilight 5:23 AM CST 6:13 PM CST
Moon 10:06 PM CST (11/23) 11:16 AM CST (11/23)
Length of Visible Light 10h 36m
Length of Day
9h 35m
Waning Gibbous, 69% of the Moon is Illuminated
Nov 23
Waning Gibbous
Nov 25
Last Quarter
Dec 2
New
Dec 9
First Quarter
Dec 17
Full

Hourly Weather History & Observations

Time (CST) Temp. Windchill Dew Point Humidity Pressure Visibility Wind Dir Wind Speed Gust Speed Precip Events Conditions
12:52 AM 21.0 °F 10.6 °F 15.1 °F 78% 30.55 in 10.0 mi West 9.2 mph - N/A   Clear
1:52 AM 19.9 °F 8.6 °F 15.1 °F 81% 30.55 in 10.0 mi West 10.4 mph - N/A   Clear
2:52 AM 21.0 °F 9.3 °F 15.1 °F 78% 30.56 in 10.0 mi WNW 11.5 mph - N/A   Clear
3:52 AM 21.0 °F 8.6 °F 15.1 °F 78% 30.57 in 10.0 mi WNW 12.7 mph - N/A   Clear
4:52 AM 21.0 °F 7.1 °F 15.1 °F 78% 30.58 in 10.0 mi NW 16.1 mph - N/A   Clear
5:52 AM 19.9 °F 6.7 °F 14.0 °F 78% 30.59 in 10.0 mi NW 13.8 mph - N/A   Clear
6:52 AM 19.0 °F 3.6 °F 12.0 °F 74% 30.61 in 10.0 mi NNW 18.4 mph 26.5 mph N/A   Clear
7:52 AM 18.0 °F 1.7 °F 12.0 °F 78% 30.65 in 10.0 mi NW 19.6 mph - N/A   Clear
8:52 AM 18.0 °F 1.7 °F 10.9 °F 74% 30.69 in 10.0 mi NNW 19.6 mph 25.3 mph N/A   Clear
9:52 AM 19.0 °F 2.7 °F 10.0 °F 68% 30.71 in 10.0 mi NNW 20.7 mph 27.6 mph N/A   Clear
10:21 AM 19.4 °F 4.1 °F 10.4 °F 68% 30.68 in 10.0 mi North 18.4 mph 28.8 mph N/A   Mostly Cloudy
10:52 AM 19.0 °F 4.5 °F 10.0 °F 68% 30.73 in 10.0 mi North 16.1 mph 25.3 mph N/A   Overcast
11:35 AM 19.4 °F 4.5 °F 10.4 °F 68% 30.68 in 10.0 mi NNW 17.3 mph 23.0 mph N/A   Mostly Cloudy
11:52 AM 21.9 °F 7.3 °F 9.0 °F 58% 30.73 in 10.0 mi North 18.4 mph 23.0 mph N/A   Mostly Cloudy
12:52 PM 21.9 °F 8.2 °F 9.0 °F 58% 30.72 in 10.0 mi NNW 16.1 mph 27.6 mph N/A   Partly Cloudy
1:52 PM 23.0 °F 10.6 °F 8.1 °F 53% 30.72 in 10.0 mi North 13.8 mph - N/A   Clear
2:52 PM 23.0 °F 9.2 °F 8.1 °F 53% 30.73 in 10.0 mi NNW 17.3 mph - N/A   Clear
3:52 PM 21.0 °F 7.1 °F 7.0 °F 55% 30.74 in 10.0 mi NNW 16.1 mph - N/A   Clear
4:52 PM 18.0 °F 4.8 °F 6.1 °F 60% 30.76 in 10.0 mi NNW 12.7 mph - N/A   Clear
5:52 PM 17.1 °F 3.0 °F 6.1 °F 62% 30.78 in 10.0 mi NNW 13.8 mph - N/A   Clear
6:52 PM 16.0 °F 4.4 °F 6.1 °F 65% 30.79 in 10.0 mi NNW 9.2 mph - N/A   Clear
7:52 PM 14.0 °F 2.0 °F 6.1 °F 71% 30.80 in 10.0 mi NNW 9.2 mph - N/A   Clear
8:52 PM 12.9 °F 2.6 °F 6.1 °F 74% 30.80 in 10.0 mi NNW 6.9 mph - N/A   Clear
9:52 PM 10.0 °F 0.4 °F 5.0 °F 80% 30.79 in 10.0 mi North 5.8 mph - N/A   Clear
10:52 PM 10.9 °F 1.4 °F 5.0 °F 77% 30.78 in 10.0 mi NW 5.8 mph - N/A   Clear
11:52 PM 8.1 °F -2.0 °F 3.0 °F 80% 30.78 in 10.0 mi North 5.8 mph - N/A   Clear